Location: Sternwarte_Laufen
(47.9344°N, 12.9346°E)
Time: 01:06:31
(UTC+02:00)

Envisat - Pass Details

Date: 18 May 2026
Orbit: 761 x 763 km, 98.4° (Epoch: 7 June)

Event Time Altitude Azimuth Distance (km) Brightness Sun altitude
Rises 03:57:26 0° 13° (NNE) 3,236 7.4 -12.3°
Reaches altitude 10° 03:59:44 10° 13° (NNE) 2,305 6.5 -12.0°
Maximum altitude 04:04:50 87° 285° (WNW) 769 3.0 -11.4°
Enters shadow 04:09:42 11° 197° (SSW) 2,213 4.8 -10.9°
